Time,TemperatureF,DewpointF,PressureIn,WindDirection,WindDirectionDegrees,WindSpeedMPH,WindSpeedGustMPH,Humidity,HourlyPrecipIn,Conditions,Clouds,dailyrainin,SoftwareType,DateUTC
2013-01-12 00:14:00,51.2,51.0,30.17,NNE,22,0.0,0.0,98,0.01,,,0.00,weatherlink.com 1.10,2013-01-12 05:14:00,
2013-01-12 00:29:00,51.3,51.0,30.16,NNE,22,0.0,1.0,98,0.02,,,0.01,weatherlink.com 1.10,2013-01-12 05:29:00,
2013-01-12 00:44:00,51.5,51.0,30.16,NNE,22,0.0,0.0,98,0.01,,,0.01,weatherlink.com 1.10,2013-01-12 05:44:00,
2013-01-12 00:59:00,51.5,51.0,30.16,NNE,22,0.0,1.0,98,0.02,,,0.02,weatherlink.com 1.10,2013-01-12 05:59:00,
2013-01-12 01:14:00,51.8,51.0,30.16,NNE,22,0.0,1.0,98,0.01,,,0.02,weatherlink.com 1.10,2013-01-12 06:14:00,
2013-01-12 01:29:00,52.2,52.0,30.16,NNE,22,0.0,1.0,98,0.01,,,0.02,weatherlink.com 1.10,2013-01-12 06:29:00,
2013-01-12 01:44:00,52.1,52.0,30.16,NNE,22,0.0,1.0,98,0.02,,,0.03,weatherlink.com 1.10,2013-01-12 06:44:00,
2013-01-12 01:59:00,52.4,52.0,30.16,WSW,250,0.0,0.0,98,0.01,,,0.03,weatherlink.com 1.10,2013-01-12 06:59:00,
2013-01-12 02:14:00,52.4,52.0,30.16,WSW,250,0.0,1.0,98,0.01,,,0.03,weatherlink.com 1.10,2013-01-12 07:14:00,
2013-01-12 02:29:00,52.5,52.0,30.16,WSW,250,0.0,0.0,98,0.01,,,0.03,weatherlink.com 1.10,2013-01-12 07:29:00,
2013-01-12 02:44:00,52.8,52.0,30.16,WSW,250,0.0,0.0,98,0.00,,,0.03,weatherlink.com 1.10,2013-01-12 07:44:00,
2013-01-12 02:59:00,52.9,52.0,30.16,WSW,251,0.0,1.0,98,0.00,,,0.03,weatherlink.com 1.10,2013-01-12 07:59:00,
2013-01-12 03:14:00,53.2,53.0,30.15,WSW,250,0.0,1.0,98,0.00,,,0.03,weatherlink.com 1.10,2013-01-12 08:14:00,
2013-01-12 03:29:00,52.8,52.0,30.15,WSW,252,0.0,0.0,98,0.00,,,0.03,weatherlink.com 1.10,2013-01-12 08:29:00,
2013-01-12 03:44:00,53.8,53.0,30.14,WSW,250,0.0,1.0,98,0.00,,,0.03,weatherlink.com 1.10,2013-01-12 08:44:00,
2013-01-12 03:59:00,54.0,54.0,30.13,WSW,250,0.0,0.0,98,0.00,,,0.03,weatherlink.com 1.10,2013-01-12 08:59:00,
2013-01-12 04:15:00,54.6,54.0,30.13,SSW,212,0.0,1.0,98,0.00,,,0.03,weatherlink.com 1.10,2013-01-12 09:15:00,
2013-01-12 04:30:00,55.2,55.0,30.13,ENE,75,0.0,2.0,98,0.00,,,0.03,weatherlink.com 1.10,2013-01-12 09:30:00,
2013-01-12 04:45:00,55.7,55.0,30.13,NNE,28,1.0,1.0,98,0.00,,,0.03,weatherlink.com 1.10,2013-01-12 09:45:00,
2013-01-12 05:00:00,55.9,55.0,30.12,SSW,212,0.0,2.0,98,0.00,,,0.03,weatherlink.com 1.10,2013-01-12 10:00:00,
2013-01-12 05:15:00,56.2,56.0,30.12,SSW,198,0.0,0.0,98,0.00,,,0.03,weatherlink.com 1.10,2013-01-12 10:15:00,
2013-01-12 05:30:00,56.4,56.0,30.12,SSE,155,1.0,1.0,98,0.00,,,0.03,weatherlink.com 1.10,2013-01-12 10:30:00,
2013-01-12 05:45:00,56.6,56.0,30.12,ESE,121,0.0,2.0,98,0.00,,,0.03,weatherlink.com 1.10,2013-01-12 10:45:00,
2013-01-12 06:00:00,57.0,57.0,30.12,ESE,121,1.0,1.0,98,0.00,,,0.03,weatherlink.com 1.10,2013-01-12 11:00:00,
2013-01-12 06:15:00,57.7,57.0,30.12,ESE,123,0.0,1.0,98,0.00,,,0.03,weatherlink.com 1.10,2013-01-12 11:15:00,
2013-01-12 06:30:00,57.5,57.0,30.13,ESE,123,1.0,1.0,98,0.00,,,0.03,weatherlink.com 1.10,2013-01-12 11:30:00,
2013-01-12 06:45:00,56.3,56.0,30.13,ESE,121,0.0,1.0,98,0.00,,,0.03,weatherlink.com 1.10,2013-01-12 11:45:00,
2013-01-12 07:00:00,56.4,56.0,30.13,ESE,121,0.0,1.0,98,0.00,,,0.03,weatherlink.com 1.10,2013-01-12 12:00:00,
2013-01-12 07:15:00,57.6,57.0,30.14,ESE,121,0.0,1.0,98,0.00,,,0.03,weatherlink.com 1.10,2013-01-12 12:15:00,
2013-01-12 07:30:00,57.2,57.0,30.14,ESE,121,0.0,0.0,98,0.00,,,0.03,weatherlink.com 1.10,2013-01-12 12:30:00,
2013-01-12 07:45:00,56.6,56.0,30.14,ESE,121,0.0,0.0,98,0.00,,,0.03,weatherlink.com 1.10,2013-01-12 12:45:00,
2013-01-12 08:00:00,57.0,57.0,30.14,ESE,121,0.0,0.0,98,0.00,,,0.03,weatherlink.com 1.10,2013-01-12 13:00:00,
2013-01-12 08:15:00,57.3,57.0,30.15,ESE,122,0.0,0.0,98,0.00,,,0.03,weatherlink.com 1.10,2013-01-12 13:15:00,
2013-01-12 08:30:00,58.2,58.0,30.15,ESE,121,0.0,1.0,98,0.00,,,0.03,weatherlink.com 1.10,2013-01-12 13:30:00,
2013-01-12 08:45:00,57.9,57.0,30.15,ESE,121,1.0,1.0,98,0.00,,,0.03,weatherlink.com 1.10,2013-01-12 13:45:00,
2013-01-12 09:00:00,58.4,58.0,30.15,ESE,121,0.0,0.0,98,0.00,,,0.03,weatherlink.com 1.10,2013-01-12 14:00:00,
2013-01-12 09:15:00,58.3,58.0,30.15,NNE,32,0.0,1.0,98,0.00,,,0.03,weatherlink.com 1.10,2013-01-12 14:15:00,
2013-01-12 09:30:00,59.1,59.0,30.15,NNE,32,0.0,1.0,98,0.00,,,0.03,weatherlink.com 1.10,2013-01-12 14:30:00,
2013-01-12 09:45:00,59.7,59.0,30.15,NNE,32,0.0,1.0,98,0.00,,,0.03,weatherlink.com 1.10,2013-01-12 14:45:00,
2013-01-12 10:00:00,60.2,60.0,30.16,East,101,1.0,1.0,98,0.00,,,0.03,weatherlink.com 1.10,2013-01-12 15:00:00,
2013-01-12 10:15:00,60.4,60.0,30.16,East,94,0.0,1.0,98,0.00,,,0.03,weatherlink.com 1.10,2013-01-12 15:15:00,
2013-01-12 10:30:00,60.7,60.0,30.16,East,95,0.0,1.0,98,0.00,,,0.03,weatherlink.com 1.10,2013-01-12 15:30:00,
2013-01-12 10:45:00,61.1,61.0,30.16,NE,44,0.0,2.0,98,0.00,,,0.03,weatherlink.com 1.10,2013-01-12 15:45:00,
2013-01-12 11:00:00,62.1,62.0,30.16,NE,43,0.0,1.0,98,0.00,,,0.03,weatherlink.com 1.10,2013-01-12 16:00:00,
2013-01-12 11:15:00,62.2,61.0,30.15,NW,316,1.0,3.0,97,0.00,,,0.03,weatherlink.com 1.10,2013-01-12 16:15:00,
2013-01-12 11:30:00,62.9,62.0,30.14,ESE,120,0.0,1.0,97,0.00,,,0.03,weatherlink.com 1.10,2013-01-12 16:30:00,
2013-01-12 11:45:00,63.8,63.0,30.13,NE,54,1.0,2.0,96,0.00,,,0.03,weatherlink.com 1.10,2013-01-12 16:45:00,
2013-01-12 12:00:00,64.6,63.0,30.12,North,6,0.0,1.0,93,0.00,,,0.03,weatherlink.com 1.10,2013-01-12 17:00:00,
2013-01-12 12:15:00,65.2,63.0,30.12,WSW,252,0.0,1.0,91,0.00,,,0.03,weatherlink.com 1.10,2013-01-12 17:15:00,
2013-01-12 12:30:00,66.4,64.0,30.12,NNE,19,1.0,2.0,90,0.00,,,0.03,weatherlink.com 1.10,2013-01-12 17:30:00,
2013-01-12 12:46:00,68.2,65.0,30.11,NNW,329,3.0,4.0,88,0.00,,,0.03,weatherlink.com 1.10,2013-01-12 17:46:00,
2013-01-12 13:01:00,69.6,65.0,30.11,NW,304,1.0,4.0,84,0.00,,,0.03,weatherlink.com 1.10,2013-01-12 18:01:00,
2013-01-12 13:16:00,71.1,66.0,30.11,SW,228,1.0,3.0,83,0.00,,,0.03,weatherlink.com 1.10,2013-01-12 18:16:00,
2013-01-12 13:31:00,71.3,66.0,30.11,SSW,212,1.0,1.0,82,0.00,,,0.03,weatherlink.com 1.10,2013-01-12 18:31:00,
2013-01-12 13:46:00,71.6,65.0,30.11,SW,228,1.0,2.0,79,0.00,,,0.03,weatherlink.com 1.10,2013-01-12 18:46:00,
2013-01-12 14:01:00,71.8,65.0,30.10,SW,232,1.0,4.0,79,0.00,,,0.03,weatherlink.com 1.10,2013-01-12 19:01:00,
2013-01-12 14:16:00,71.3,63.0,30.10,NW,314,0.0,4.0,76,0.00,,,0.03,weatherlink.com 1.10,2013-01-12 19:16:00,
2013-01-12 14:31:00,71.7,64.0,30.10,NNW,340,1.0,4.0,77,0.00,,,0.03,weatherlink.com 1.10,2013-01-12 19:31:00,
2013-01-12 14:46:00,72.2,65.0,30.09,ESE,111,1.0,2.0,77,0.00,,,0.03,weatherlink.com 1.10,2013-01-12 19:46:00,
2013-01-12 15:01:00,72.9,63.0,30.09,WNW,297,2.0,4.0,72,0.00,,,0.03,weatherlink.com 1.10,2013-01-12 20:01:00,
2013-01-12 15:16:00,72.2,63.0,30.09,WSW,248,0.0,2.0,73,0.00,,,0.03,weatherlink.com 1.10,2013-01-12 20:16:00,
2013-01-12 15:31:00,71.5,62.0,30.09,SW,215,1.0,3.0,71,0.00,,,0.03,weatherlink.com 1.10,2013-01-12 20:31:00,
2013-01-12 15:46:00,71.3,62.0,30.09,WSW,253,0.0,1.0,72,0.00,,,0.03,weatherlink.com 1.10,2013-01-12 20:46:00,
2013-01-12 16:01:00,70.9,61.0,30.09,SSW,204,1.0,3.0,70,0.00,,,0.03,weatherlink.com 1.10,2013-01-12 21:01:00,
2013-01-12 16:16:00,70.3,61.0,30.09,WSW,253,0.0,5.0,72,0.00,,,0.03,weatherlink.com 1.10,2013-01-12 21:16:00,
2013-01-12 16:31:00,70.0,61.0,30.09,SW,218,1.0,2.0,73,0.00,,,0.03,weatherlink.com 1.10,2013-01-12 21:31:00,
2013-01-12 16:46:00,69.4,61.0,30.09,WSW,242,1.0,2.0,75,0.00,,,0.03,weatherlink.com 1.10,2013-01-12 21:46:00,
2013-01-12 17:01:00,68.2,61.0,30.10,SSE,160,1.0,2.0,78,0.00,,,0.03,weatherlink.com 1.10,2013-01-12 22:01:00,
2013-01-12 17:16:00,67.3,61.0,30.09,ESE,113,2.0,4.0,79,0.00,,,0.03,weatherlink.com 1.10,2013-01-12 22:16:00,
2013-01-12 17:31:00,66.3,60.0,30.09,SSW,204,0.0,1.0,81,0.00,,,0.03,weatherlink.com 1.10,2013-01-12 22:31:00,
2013-01-12 17:46:00,65.4,60.0,30.09,SSW,203,0.0,1.0,83,0.00,,,0.03,weatherlink.com 1.10,2013-01-12 22:46:00,
2013-01-12 18:00:00,64.3,60.0,30.09,SSW,203,0.0,0.0,85,0.00,,,0.03,weatherlink.com 1.10,2013-01-12 23:00:00,
2013-01-12 18:16:00,63.0,59.0,30.09,SSW,203,0.0,0.0,87,0.00,,,0.03,weatherlink.com 1.10,2013-01-12 23:16:00,
2013-01-12 18:31:00,61.7,59.0,30.10,SSW,203,0.0,0.0,90,0.00,,,0.03,weatherlink.com 1.10,2013-01-12 23:31:00,
2013-01-12 18:46:00,61.1,58.0,30.10,SSW,203,0.0,0.0,90,0.00,,,0.03,weatherlink.com 1.10,2013-01-12 23:46:00,
2013-01-12 19:02:00,60.3,58.0,30.10,SSW,203,0.0,0.0,92,0.00,,,0.03,weatherlink.com 1.10,2013-01-13 00:02:00,
2013-01-12 19:16:00,59.7,58.0,30.10,SSW,203,0.0,1.0,93,0.00,,,0.03,weatherlink.com 1.10,2013-01-13 00:16:00,
2013-01-12 19:31:00,58.6,57.0,30.10,SSW,203,0.0,0.0,93,0.00,,,0.03,weatherlink.com 1.10,2013-01-13 00:31:00,
2013-01-12 19:46:00,58.1,56.0,30.10,SSW,203,0.0,0.0,94,0.00,,,0.03,weatherlink.com 1.10,2013-01-13 00:46:00,
2013-01-12 20:01:00,57.7,56.0,30.09,SSW,203,0.0,0.0,95,0.00,,,0.03,weatherlink.com 1.10,2013-01-13 01:01:00,
2013-01-12 20:16:00,57.8,57.0,30.09,SSW,203,0.0,0.0,96,0.00,,,0.03,weatherlink.com 1.10,2013-01-13 01:16:00,
2013-01-12 20:31:00,58.1,57.0,30.09,SSW,203,0.0,1.0,96,0.00,,,0.03,weatherlink.com 1.10,2013-01-13 01:31:00,
2013-01-12 20:46:00,57.8,57.0,30.09,ESE,113,0.0,0.0,96,0.00,,,0.03,weatherlink.com 1.10,2013-01-13 01:46:00,
2013-01-12 21:01:00,57.3,56.0,30.09,ESE,113,0.0,1.0,96,0.00,,,0.03,weatherlink.com 1.10,2013-01-13 02:01:00,
2013-01-12 21:16:00,56.9,56.0,30.09,ESE,113,0.0,1.0,96,0.00,,,0.03,weatherlink.com 1.10,2013-01-13 02:16:00,
2013-01-12 21:31:00,57.2,56.0,30.08,ESE,113,0.0,1.0,97,0.00,,,0.03,weatherlink.com 1.10,2013-01-13 02:31:00,
2013-01-12 21:46:00,57.0,56.0,30.08,ESE,113,0.0,0.0,97,0.00,,,0.03,weatherlink.com 1.10,2013-01-13 02:46:00,
2013-01-12 22:01:00,56.7,56.0,30.08,ESE,113,0.0,0.0,97,0.00,,,0.03,weatherlink.com 1.10,2013-01-13 03:01:00,
2013-01-12 22:16:00,57.2,56.0,30.08,ESE,113,0.0,1.0,97,0.00,,,0.03,weatherlink.com 1.10,2013-01-13 03:16:00,
2013-01-12 22:31:00,56.3,56.0,30.08,ESE,114,0.0,0.0,97,0.00,,,0.03,weatherlink.com 1.10,2013-01-13 03:31:00,
2013-01-12 22:46:00,55.7,55.0,30.08,ESE,114,0.0,0.0,97,0.00,,,0.03,weatherlink.com 1.10,2013-01-13 03:46:00,
2013-01-12 23:01:00,56.0,55.0,30.08,ESE,115,0.0,0.0,97,0.00,,,0.03,weatherlink.com 1.10,2013-01-13 04:01:00,
2013-01-12 23:16:00,55.9,55.0,30.08,ESE,114,0.0,1.0,97,0.00,,,0.03,weatherlink.com 1.10,2013-01-13 04:16:00,
2013-01-12 23:31:00,55.6,55.0,30.08,ESE,115,0.0,0.0,97,0.00,,,0.03,weatherlink.com 1.10,2013-01-13 04:31:00,
2013-01-12 23:46:00,56.0,55.0,30.07,ESE,115,0.0,1.0,97,0.00,,,0.03,weatherlink.com 1.10,2013-01-13 04:46:00,